Weather in Byshiv

Ukraine / Kyiv Region     50°16′01″N   29°52′54″E
temp.,
°C
wind,
m/s
gust,
m/s
humid.,
%
clouds,
%
prec.,
mm/h
press.,
hPa
HPBL,
m
26 july, mon
mon2600:00+19ese22734 0.0 102018
03:00+17sse1175100 0.0 102011
06:00+19se2266100 0.0 102039
09:00+20sse236670 0.0 1020137
12:00+24sse3555100 0.0 1020552
15:00+28s254123 0.0 10192191
18:00+23se225998 0.0 101934
21:00+20se33704 0.0 101943
27 july, tue
tue2700:00+19se387229 0.0 1020137
03:00+18sse36745 0.0 102097
06:00+17se35754 0.0 101987
09:00+24sse46605 0.0 1019371
12:00+28sse46455 0.0 10181051
15:00+30s4538100 0.0 10171958
18:00+29sse244998 0.0 1017504
21:00+23sse386464 0.0 1016130
28 july, wed
wed2800:00+23s3965100 0.0 1016176
03:00+19ssw3686100 0.8 1015101
06:00+18sw369144 0.6 1015119
09:00+24wsw34745 0.6 1014343
12:00+28w2358100 0.0 10141149
15:00+29w345616 0.7 10131570
18:00+29nw34540 0.0 10131359
21:00+23nw23710 0.0 101344
29 july, thu
thu2900:00+21wnw11743 0.0 101411
03:00+20se1177100 0.0 101311
06:00+20s227970 0.0 101228
09:00+25sse3566100 0.0 1012361
12:00+30ssw45515 0.0 10111163
15:00+31wsw57451 0.0 10101706
18:00+30wnw665547 0.0 10101306
21:00+24nw510640 0.1 1011427
30 july, fri
fri3000:00+20nw37820 0.0 1013174
03:00+18nw36890 0.0 1013129
06:00+17nw23920 0.0 101362
09:00+23nnw22640 0.0 1014454
12:00+27nw11440 0.0 10131473
15:00+28w22395 0.0 10122024
18:00+28sw12420 0.0 10111647
21:00+22sse33590 0.0 101033